This demonstration page uses our WeatherBlox Daily Observations layout. Learn more.

Left ArrowRight Arrow

Hourly Observations for October 6, 2022

Temp ( °F °C ) Dew Point ( °F °C ) Humidity (%) Winds ( mph kmh ) Pressure ( in mb ) Visibility ( mi km ) Precip ( " mm )
12:52 am 00:52 Clear 56 13.3 52 11.1 87 87 Calm 30.10 1019 10 16 0.00 0.00
1:52 am 01:52 Clear 55 12.8 53 11.7 93 93 Calm 30.10 1019 10 16 0.00 0.00
2:52 am 02:52 Clear 54 12.2 52 11.1 93 93 Calm 30.11 1020 10 16 0.00 0.00
3:52 am 03:52 Clear 55 12.8 51 10.6 86 86 Calm 30.10 1019 10 16 0.00 0.00
4:52 am 04:52 Clear 54 12.2 51 10.6 90 90 Calm 30.11 1020 10 16 0.00 0.00
5:52 am 05:52 Clear 53 11.7 51 10.6 93 93 NNW 3 6 30.12 1020 10 16 0.00 0.00
6:52 am 06:52 Mostly Clear 50 10 49 9.4 96 96 NW 3 6 30.14 1021 10 16 0.00 0.00
7:52 am 07:52 Partly Cloudy with Patchy Fog 52 11.1 50 10 93 93 Calm 30.14 1021 10 16 0.00 0.00
8:52 am 08:52 Mostly Sunny 58 14.4 52 11.1 81 81 WNW 5 7 30.16 1021 10 16 0.00 0.00
9:52 am 09:52 Partly Cloudy 63 17.2 53 11.7 70 70 N 9 15 30.18 1022 10 16 0.00 0.00
10:52 am 10:52 Partly Cloudy 64 17.8 53 11.7 67 67 N 15 24 30.19 1022 10 16 0.00 0.00
11:52 am 11:52 Partly Cloudy 68 20 53 11.7 59 59 N 16 26 30.20 1023 10 16 0.00 0.00
12:52 pm 12:52 Partly Cloudy 69 20.6 53 11.7 57 57 NNW 18 30 30.22 1023 10 16 0.00 0.00
1:52 pm 13:52 Partly Cloudy 69 20.6 49 9.4 49 49 N 17 28 30.22 1023 10 16 0.00 0.00
2:52 pm 14:52 Partly Cloudy 68 20 46 7.8 45 45 N 17 28 30.23 1024 10 16 0.00 0.00
3:52 pm 15:52 Partly Cloudy 67 19.4 46 7.8 47 47 N 17 28 30.24 1024 10 16 0.00 0.00
4:52 pm 16:52 Mostly Sunny 65 18.3 44 6.7 47 47 N 18 30 30.26 1025 10 16 0.00 0.00
5:52 pm 17:52 Partly Cloudy 62 16.7 42 5.6 48 48 N 21 33 30.28 1025 10 16 0.00 0.00
6:52 pm 18:52 Partly Cloudy 59 15 33 0.6 37 37 NNW 13 20 30.31 1026 10 16 0.00 0.00
7:52 pm 19:52 Partly Cloudy 54 12.2 34 1.1 47 47 N 9 15 30.34 1027 10 16 0.00 0.00
8:52 pm 20:52 Partly Cloudy 50 10 33 0.6 52 52 N 8 13 30.37 1028 10 16 0.00 0.00
9:52 pm 21:52 Partly Cloudy 48 8.9 33 0.6 56 56 NNE 6 9 30.38 1029 10 16 0.00 0.00
10:52 pm 22:52 Partly Cloudy 48 8.9 33 0.6 56 56 N 8 13 30.41 1030 10 16 0.00 0.00
11:52 pm 23:52 Partly Cloudy 48 8.9 34 1.1 58 58 N 6 9 30.42 1030 10 16 0.00 0.00

Powered by AerisWeather